When you browse on this site, cookies collect data to enhance your experience and personalize the content and advertising you see.
Visit our Privacy Policy to learn more. By continuing to use the site, you agree to this use of cookies and data.
  • In United Kingdom
  • List of Countries
  • For 7 days
  • Water Temperature
  • Weather Map
  • Weather Widgets
  • user-avatar
    Login

    Hourly Weather Killington

    Today, 23 January, Thursday

    Time Temperature Precipitation Wind Pressure Humidity
    00:00 -8°C° 0 mm 1 mps 711 mmHg 85%
    01:00 -8°C° 0 mm 2 mps 711 mmHg 84%
    02:00 -9°C° 0 mm 2 mps 711 mmHg 83%
    03:00 -8°C° 0 mm 1 mps 711 mmHg 83%
    04:00 -8°C° 0 mm 1 mps 711 mmHg 82%
    05:00 -8°C° 0 mm 1 mps 711 mmHg 82%
    06:00 -8°C° 0 mm 1 mps 711 mmHg 81%
    07:00 -9°C° 0 mm 1 mps 711 mmHg 80%
    08:00 -7°C° 0 mm 1 mps 711 mmHg 77%
    09:00 -4°C° 0 mm 1 mps 712 mmHg 73%
    10:00 -2°C° 0 mm 1 mps 712 mmHg 70%
    11:00 -1°C° 0 mm 1 mps 712 mmHg 68%
    12:00 0°C° 0 mm 1 mps 711 mmHg 67%
    13:00 +1°C° 0 mm 1 mps 711 mmHg 66%
    14:00 0°C° 0 mm 1 mps 711 mmHg 69%
    15:00 -1°C° 0 mm 1 mps 711 mmHg 72%
    16:00 -1°C° 0 mm 1 mps 711 mmHg 75%
    17:00 -2°C° 0 mm 1 mps 711 mmHg 73%
    18:00 -4°C° 0 mm 0 mps 711 mmHg 72%
    19:00 -5°C° 0 mm 0 mps 711 mmHg 70%
    20:00 -5°C° 0 mm 0 mps 711 mmHg 70%
    21:00 -5°C° 0 mm 0 mps 711 mmHg 69%
    22:00 -5°C° 0 mm 0 mps 711 mmHg 68%
    23:00 -5°C° 0 mm 0 mps 711 mmHg 68%

    Tomorrow, 24 January, Friday

    Time Temperature Precipitation Wind Pressure Humidity
    00:00 -5°C° 0 mm 0 mps 711 mmHg 67%
    01:00 -5°C° 0 mm 0 mps 711 mmHg 66%
    02:00 -5°C° 0 mm 0 mps 711 mmHg 66%
    03:00 -6°C° 0 mm 0 mps 711 mmHg 65%
    04:00 -6°C° 0 mm 0 mps 711 mmHg 65%
    05:00 -6°C° 0 mm 0 mps 712 mmHg 65%
    06:00 -6°C° 0 mm 0 mps 712 mmHg 65%
    07:00 -7°C° 0 mm 0 mps 712 mmHg 65%
    08:00 -5°C° 0 mm 0 mps 712 mmHg 64%
    09:00 -3°C° 0 mm 0 mps 713 mmHg 63%
    10:00 -1°C° 0 mm 0 mps 713 mmHg 63%
    11:00 0°C° 0 mm 1 mps 713 mmHg 64%
    12:00 +1°C° 0 mm 1 mps 713 mmHg 65%
    13:00 +2°C° 0 mm 1 mps 713 mmHg 67%
    14:00 +1°C° 0 mm 1 mps 713 mmHg 71%
    15:00 0°C° 0 mm 1 mps 712 mmHg 75%
    16:00 0°C° 0 mm 1 mps 712 mmHg 80%
    17:00 -1°C° 0 mm 1 mps 712 mmHg 84%
    18:00 -2°C° 0 mm 1 mps 712 mmHg 88%
    19:00 -3°C° 0 mm 1 mps 712 mmHg 92%
    20:00 -3°C° 0 mm 1 mps 712 mmHg 93%
    21:00 -3°C° 0 mm 1 mps 712 mmHg 94%
    22:00 -2°C° 0 mm 1 mps 712 mmHg 95%
    23:00 -2°C° 0 mm 1 mps 712 mmHg 95%

    Day after tomorrow, 25 January, Saturday

    Time Temperature Precipitation Wind Pressure Humidity
    00:00 -2°C° 0 mm 1 mps 712 mmHg 96%
    01:00 -3°C° 0 mm 1 mps 711 mmHg 96%
    02:00 -3°C° 0 mm 1 mps 711 mmHg 96%
    03:00 -3°C° 0 mm 1 mps 711 mmHg 96%
    04:00 -3°C° 0 mm 1 mps 711 mmHg 96%
    05:00 -3°C° 0 mm 1 mps 710 mmHg 96%
    06:00 -2°C° 0 mm 1 mps 710 mmHg 95%
    07:00 -2°C° 0 mm 1 mps 710 mmHg 95%
    08:00 -4°C° 0 mm 2 mps 710 mmHg 93%
    09:00 -4°C° 0 mm 3 mps 710 mmHg 91%
    10:00 -3°C° 0 mm 4 mps 710 mmHg 89%
    11:00 -3°C° 0.1 mm 4 mps 709 mmHg 89%
    12:00 -3°C° 0.1 mm 4 mps 708 mmHg 90%
    13:00 -3°C° 0.1 mm 4 mps 707 mmHg 90%
    14:00 -4°C° 0.4 mm 5 mps 707 mmHg 92%
    15:00 -4°C° 0.4 mm 5 mps 706 mmHg 93%
    16:00 -4°C° 0.4 mm 5 mps 705 mmHg 94%
    17:00 -2°C° 1.1 mm 5 mps 704 mmHg 95%
    18:00 -2°C° 1.1 mm 5 mps 703 mmHg 95%
    19:00 -2°C° 1.1 mm 5 mps 703 mmHg 95%
    20:00 -1°C° 1 mm 5 mps 701 mmHg 95%
    21:00 -1°C° 1 mm 5 mps 700 mmHg 95%
    22:00 -1°C° 1 mm 5 mps 699 mmHg 95%
    23:00 -1°C° 1.7 mm 5 mps 698 mmHg 95%

    26 January, Sunday

    Time Temperature Precipitation Wind Pressure Humidity
    00:00 -1°C° 1.7 mm 5 mps 697 mmHg 95%
    01:00 -1°C° 1.7 mm 5 mps 696 mmHg 95%
    02:00 0°C° 0.5 mm 3 mps 696 mmHg 96%
    03:00 +1°C° 0.5 mm 2 mps 695 mmHg 97%
    04:00 +2°C° 0.5 mm 1 mps 695 mmHg 98%
    05:00 +2°C° 0.6 mm 1 mps 695 mmHg 98%
    06:00 +2°C° 0.6 mm 1 mps 694 mmHg 98%
    07:00 +2°C° 0.6 mm 1 mps 694 mmHg 98%
    08:00 -1°C° 0.5 mm 2 mps 694 mmHg 98%
    09:00 -1°C° 0.5 mm 3 mps 694 mmHg 97%
    10:00 -3°C° 0.5 mm 4 mps 694 mmHg 96%
    11:00 -3°C° 0.5 mm 4 mps 694 mmHg 95%
    12:00 -3°C° 0.5 mm 4 mps 693 mmHg 94%
    13:00 -4°C° 0.5 mm 5 mps 693 mmHg 93%
    14:00 -4°C° 0.2 mm 5 mps 693 mmHg 93%
    15:00 -4°C° 0.2 mm 5 mps 694 mmHg 94%
    16:00 -4°C° 0.2 mm 5 mps 694 mmHg 95%
    17:00 -4°C° 0.1 mm 5 mps 694 mmHg 94%
    18:00 -4°C° 0.1 mm 5 mps 694 mmHg 94%
    19:00 -4°C° 0.1 mm 5 mps 694 mmHg 93%
    20:00 -3°C° 0.1 mm 4 mps 694 mmHg 93%
    21:00 -4°C° 0.1 mm 4 mps 694 mmHg 92%
    22:00 -4°C° 0.1 mm 4 mps 695 mmHg 92%
    23:00 -4°C° 0 mm 3 mps 694 mmHg 92%

    27 January, Monday

    Time Temperature Precipitation Wind Pressure Humidity
    00:00 -5°C° 0 mm 3 mps 694 mmHg 93%
    01:00 -4°C° 0 mm 2 mps 694 mmHg 93%
    02:00 -4°C° 0.1 mm 2 mps 694 mmHg 93%
    03:00 -4°C° 0.1 mm 2 mps 695 mmHg 94%
    04:00 -4°C° 0.1 mm 2 mps 695 mmHg 94%
    05:00 -4°C° 0 mm 2 mps 695 mmHg 94%
    06:00 -3°C° 0 mm 1 mps 695 mmHg 95%
    07:00 -3°C° 0 mm 1 mps 695 mmHg 95%
    08:00 -2°C° 0 mm 1 mps 696 mmHg 92%
    09:00 -1°C° 0 mm 1 mps 696 mmHg 90%
    10:00 -2°C° 0 mm 2 mps 696 mmHg 87%
    11:00 -2°C° 0 mm 2 mps 696 mmHg 86%
    12:00 -2°C° 0 mm 2 mps 696 mmHg 84%
    13:00 -2°C° 0 mm 3 mps 696 mmHg 83%
    14:00 -2°C° 0 mm 2 mps 696 mmHg 85%
    15:00 -2°C° 0 mm 2 mps 697 mmHg 86%
    16:00 -3°C° 0 mm 2 mps 697 mmHg 88%
    17:00 -3°C° 0 mm 2 mps 697 mmHg 90%
    18:00 -4°C° 0 mm 2 mps 697 mmHg 92%
    19:00 -3°C° 0 mm 1 mps 697 mmHg 94%
    20:00 -4°C° 0 mm 1 mps 698 mmHg 93%
    21:00 -4°C° 0 mm 1 mps 698 mmHg 93%
    22:00 -4°C° 0 mm 1 mps 698 mmHg 93%
    23:00 -6°C° 0 mm 1 mps 698 mmHg 93%

    28 January, Tuesday

    Time Temperature Precipitation Wind Pressure Humidity
    00:00 -6°C° 0 mm 1 mps 697 mmHg 94%
    01:00 -6°C° 0 mm 1 mps 697 mmHg 94%
    02:00 -6°C° 0 mm 1 mps 697 mmHg 95%
    03:00 -6°C° 0 mm 1 mps 698 mmHg 95%
    04:00 -6°C° 0 mm 1 mps 698 mmHg 95%
    05:00 -6°C° 0 mm 1 mps 698 mmHg 95%
    06:00 -6°C° 0 mm 1 mps 698 mmHg 95%
    07:00 -6°C° 0 mm 1 mps 698 mmHg 95%
    08:00 -6°C° 0 mm 1 mps 698 mmHg 91%
    09:00 -6°C° 0 mm 2 mps 698 mmHg 87%
    10:00 -5°C° 0 mm 2 mps 699 mmHg 83%
    11:00 -4°C° 0 mm 2 mps 698 mmHg 82%
    12:00 -4°C° 0 mm 2 mps 698 mmHg 81%
    13:00 -4°C° 0 mm 2 mps 698 mmHg 80%
    14:00 -4°C° 0 mm 2 mps 698 mmHg 81%
    15:00 -4°C° 0 mm 2 mps 698 mmHg 82%
    16:00 -4°C° 0 mm 2 mps 698 mmHg 84%
    17:00 -5°C° 0 mm 2 mps 698 mmHg 87%
    18:00 -4°C° 0 mm 1 mps 698 mmHg 91%
    19:00 -4°C° 0 mm 1 mps 699 mmHg 95%
    20:00 -6°C° 0 mm 1 mps 699 mmHg 93%
    21:00 -7°C° 0 mm 2 mps 699 mmHg 92%
    22:00 -8°C° 0 mm 2 mps 699 mmHg 91%
    23:00 -8°C° 0 mm 2 mps 699 mmHg 90%
    Show more